Wind_Speed
97 91 88 84 80 69 65 63 73 50 43 45 51 58 68 62 58 55 52 46 54 47 47 52 48 47 46 45 43 42 40 39 38 39 41 43 45 43
99 95 91 86 82 81 70 70 57 53 64 49 50 55 61 63 59 58 57 53 53 50 51 50 49 47 44 44 43 42 40 40 41 43 44 42 39 39
100 98 96 91 87 85 83 70 67 61 61 62 54 51 54 52 64 68 65 60 54 55 53 51 51 48 46 46 46 46 46 45 43 39 36 37 36 30
102 100 98 94 90 90 87 81 72 69 65 66 66 63 49 47 50 53 56 56 56 54 53 52 53 52 51 50 48 46 43 40 39 36 35 29 30 28
101 101 100 97 94 92 91 92 75 70 66 68 66 58 56 52 57 54 55 54 55 55 52 51 49 46 44 43 42 40 39 41 40 39 34 33 34 32
102 100 100 99 96 94 92 91 93 86 76 67 73 58 55 55 56 60 58 58 56 54 51 49 48 45 45 44 43 44 43 42 40 38 36 36 33 34
103 101 99 99 98 95 93 90 89 92 94 68 74 74 75 63 69 67 58 58 62 63 56 50 47 47 45 45 45 42 41 39 36 35 33 33 34 36
101 102 99 99 97 99 97 96 95 90 85 91 76 68 53 56 54 67 59 57 54 51 58 50 49 48 46 44 43 43 40 37 35 35 36 37 37 37
89 100 101 98 97 98 99 98 99 93 77 74 75 65 65 61 55 55 62 58 56 54 49 50 51 50 47 47 47 46 42 39 38 39 39 40 41 42
73 87 100 100 99 97 101 103 103 104 98 79 75 67 61 65 60 65 63 66 63 58 58 58 54 52 52 52 51 47 43 42 43 42 42 44 44 43
57 72 88 97 98 98 98 103 104 106 103 95 97 83 76 54 54 57 58 66 68 64 63 60 59 58 56 56 53 50 47 46 46 45 46 47 47 47
40 56 73 85 92 99 99 102 105 105 109 111 94 99 97 88 79 63 56 60 62 65 63 63 62 60 60 58 57 56 53 50 48 48 48 50 49 50
34 40 51 66 81 89 99 101 102 108 110 110 111 102 97 96 81 90 86 68 60 66 66 64 63 61 57 53 56 57 55 50 50 51 52 51 51 52
32 36 43 53 64 77 92 99 102 108 113 111 111 101 93 82 80 66 76 80 76 65 63 57 57 60 60 57 54 55 52 51 54 55 54 53 53 52
34 37 40 46 54 65 79 94 102 106 110 111 108 106 104 94 90 80 76 87 87 82 64 65 67 67 62 61 58 59 56 55 54 57 55 53 52 50
30 35 39 42 45 55 67 81 98 103 106 107 106 104 102 100 100 98 69 77 85 90 90 59 67 63 63 65 61 63 59 56 55 53 55 54 54 53
23 30 36 40 42 44 55 71 85 99 103 103 106 105 99 94 88 97 81 83 86 84 75 76 73 62 64 71 68 62 59 58 54 53 54 52 54 58
18 21 28 34 37 41 44 54 75 87 98 103 105 104 100 95 87 87 89 79 77 83 84 81 83 80 78 71 61 59 56 55 55 54 59 54 55 52
17 21 23 28 31 34 38 43 54 78 91 102 107 113 104 96 93 94 96 82 78 81 78 81 82 79 70 59 58 60 59 61 64 60 58 56 53 51
11 16 20 26 30 35 33 33 37 64 89 97 108 119 118 113 111 103 99 94 85 78 78 85 80 79 80 68 60 59 61 62 57 58 60 59 55 53
8 10 13 16 20 26 29 28 29 38 70 95 102 111 121 118 100 89 92 77 80 74 70 80 75 74 81 66 60 63 61 58 61 61 61 53 50 54
6 8 9 9 19 23 25 23 28 36 44 77 98 103 107 102 84 74 87 92 84 79 77 77 76 68 64 66 65 66 64 64 67 67 60 62 56 55
3 8 9 7 9 11 16 12 15 23 33 45 77 100 105 102 101 73 65 70 79 81 87 87 70 63 61 63 64 58 64 59 56 58 61 59 59 61
Wind_Direction
232 229 225 226 227 223 225 227 232 231 239 251 240 236 223 225 226 225 223 226 229 233 235 238 239 241 242 244 247 249 252 256 260 263 267 273 279 282
230 229 226 222 224 219 221 230 228 238 243 246 233 232 228 228 227 227 227 230 233 235 235 238 238 238 240 243 247 250 253 257 261 267 271 274 276 280
228 228 228 223 220 219 225 224 225 228 228 236 233 227 225 228 231 231 229 228 232 234 237 238 239 240 242 246 249 252 255 259 260 261 264 272 276 280
227 227 227 225 221 219 220 220 225 223 230 232 243 225 229 234 231 231 233 231 232 234 235 239 241 243 244 246 248 250 251 252 254 257 265 263 267 270
226 226 225 225 223 219 218 218 223 225 224 228 227 216 221 234 231 236 232 234 231 233 231 233 234 236 238 239 241 244 247 250 255 259 256 257 261 265
226 226 224 224 223 221 218 219 221 223 225 220 222 218 220 228 231 232 230 237 229 229 228 229 230 235 240 244 247 248 250 252 253 255 253 262 265 264
225 226 226 224 223 221 219 216 217 220 223 215 220 224 233 245 248 235 239 234 234 231 228 232 237 241 243 245 246 246 248 250 251 256 260 265 268 266
226 225 226 224 222 221 218 215 216 219 224 232 223 226 232 231 216 234 228 230 233 235 227 230 236 238 239 240 242 242 245 249 254 262 266 268 269 273
230 227 226 225 222 220 219 217 217 215 206 214 217 222 217 225 218 226 226 227 234 232 227 229 229 234 236 237 240 242 247 254 258 262 266 268 272 276
233 230 227 225 223 220 218 218 216 216 219 215 221 204 206 211 226 226 228 230 229 225 229 228 233 236 239 242 244 246 250 254 258 262 267 270 272 274
233 232 230 227 225 222 218 219 217 217 220 218 221 215 212 217 214 220 226 229 230 231 233 233 235 235 243 247 248 251 253 256 260 264 268 271 272 276
230 232 232 230 227 224 220 218 218 217 220 221 219 226 226 221 232 225 226 223 229 231 233 236 238 238 240 244 251 252 254 256 260 264 268 270 273 277
229 225 228 230 229 225 223 218 217 218 220 222 226 227 232 240 239 230 232 237 242 236 234 235 238 240 238 243 248 251 253 257 261 264 267 269 272 277
229 222 223 224 225 226 224 220 217 218 220 220 223 223 222 219 218 217 235 239 237 230 225 231 236 240 246 247 251 254 252 261 264 263 264 266 272 278
234 231 226 225 223 223 224 222 219 217 219 220 221 222 223 229 232 234 230 227 226 235 241 234 239 240 243 249 257 255 260 266 264 262 264 268 275 278
235 231 229 229 227 222 219 222 222 218 218 218 218 221 224 227 229 225 223 224 230 234 237 234 233 232 249 255 258 253 257 263 263 262 263 271 278 272
239 236 233 231 230 228 221 219 221 221 217 217 216 217 219 215 210 214 226 230 229 229 234 234 241 240 250 255 253 251 257 259 258 259 268 273 272 273
245 234 226 228 229 227 224 221 217 219 218 215 215 215 210 211 216 222 224 231 236 235 236 236 237 243 252 248 245 250 253 255 257 260 273 269 273 270
246 242 236 223 224 230 234 238 226 215 215 215 212 208 207 210 214 221 225 233 236 233 234 238 243 245 240 244 245 252 257 257 263 266 260 268 268 268
238 235 238 233 228 229 232 239 236 223 211 213 212 211 214 219 224 228 232 231 235 237 239 236 235 239 243 250 254 248 252 259 258 258 263 268 261 266
244 237 235 224 225 230 234 236 236 230 220 210 211 213 214 219 223 225 226 222 217 220 223 230 232 239 243 248 246 253 257 252 254 259 261 263 268 268
253 236 222 230 222 224 227 231 240 229 223 218 208 210 212 208 209 214 215 219 224 226 234 230 233 235 239 242 249 255 256 256 259 262 263 266 273 274
304 224 233 258 242 230 225 253 241 213 208 213 217 203 208 204 212 206 223 221 222 227 225 233 235 240 245 246 250 256 255 251 250 257 264 264 268 269
Height
5544 5566 5581 5594 5610 5624 5633 5639 5645 5649 5659 5667 5672 5679 5686 5695 5702 5712 5709 5718 5724 5732 5740 5746 5749 5755 5759 5762 5765 5768 5771 5774 5775 5778 5779 5778 5778 5779
5521 5540 5560 5577 5591 5607 5616 5622 5627 5637 5648 5656 5664 5669 5676 5684 5692 5699 5706 5713 5718 5724 5730 5735 5740 5744 5749 5753 5756 5760 5762 5764 5766 5768 5769 5769 5770 5770
5500 5516 5536 5555 5572 5587 5597 5607 5617 5626 5636 5643 5649 5656 5661 5670 5677 5684 5691 5699 5707 5714 5718 5723 5729 5734 5739 5743 5746 5749 5753 5755 5757 5758 5759 5760 5761 5761
5476 5494 5512 5530 5551 5566 5579 5592 5601 5610 5619 5626 5635 5643 5652 5658 5665 5671 5678 5687 5696 5701 5706 5712 5717 5723 5728 5732 5735 5738 5741 5744 5745 5748 5750 5752 5752 5752
5454 5471 5489 5506 5528 5543 5559 5573 5583 5596 5604 5611 5622 5630 5639 5645 5652 5658 5668 5675 5684 5690 5694 5700 5706 5711 5716 5720 5725 5729 5731 5733 5736 5738 5740 5742 5744 5744
5433 5448 5466 5484 5504 5524 5540 5553 5568 5580 5588 5596 5607 5616 5624 5632 5639 5647 5656 5663 5671 5678 5685 5690 5694 5699 5705 5710 5715 5717 5720 5724 5726 5728 5730 5733 5734 5735
5411 5428 5444 5463 5482 5501 5518 5535 5548 5561 5572 5580 5591 5600 5607 5614 5622 5637 5644 5650 5657 5665 5672 5678 5683 5689 5695 5699 5703 5707 5710 5713 5716 5719 5721 5723 5724 5725
5389 5405 5422 5440 5459 5478 5496 5513 5528 5543 5556 5567 5575 5584 5593 5603 5609 5618 5629 5636 5645 5655 5660 5667 5673 5679 5683 5688 5692 5696 5699 5703 5706 5709 5711 5712 5713 5714
5368 5382 5400 5417 5435 5455 5474 5490 5507 5525 5536 5547 5556 5569 5577 5588 5597 5606 5615 5625 5633 5643 5646 5652 5659 5666 5671 5675 5679 5684 5688 5693 5696 5698 5700 5701 5702 5703
5350 5361 5376 5394 5412 5431 5449 5466 5484 5501 5516 5527 5542 5552 5562 5571 5583 5595 5605 5612 5618 5626 5631 5639 5648 5654 5660 5665 5669 5673 5678 5682 5684 5686 5688 5689 5691 5691
5334 5342 5355 5372 5390 5409 5431 5446 5464 5482 5496 5508 5522 5533 5544 5555 5565 5578 5584 5592 5602 5610 5618 5628 5636 5641 5647 5653 5658 5663 5667 5670 5672 5674 5676 5677 5678 5678
5323 5329 5338 5353 5367 5383 5403 5422 5443 5465 5474 5489 5502 5516 5524 5539 5551 5562 5568 5577 5587 5595 5605 5614 5620 5627 5634 5642 5647 5651 5654 5656 5659 5661 5663 5664 5665 5665
5311 5317 5324 5333 5345 5360 5379 5402 5426 5436 5451 5465 5480 5497 5509 5520 5532 5544 5558 5566 5575 5583 5594 5598 5606 5612 5620 5627 5632 5636 5640 5642 5646 5648 5650 5651 5652 5652
5300 5305 5310 5316 5325 5339 5358 5383 5398 5412 5426 5443 5458 5476 5494 5507 5519 5527 5544 5554 5566 5573 5579 5584 5590 5598 5605 5612 5616 5623 5626 5629 5632 5635 5637 5638 5639 5639
5291 5295 5299 5304 5311 5322 5339 5356 5371 5386 5405 5421 5443 5462 5481 5495 5510 5520 5520 5532 5546 5556 5561 5566 5577 5583 5589 5599 5604 5609 5611 5615 5618 5621 5624 5625 5625 5625
5283 5286 5290 5295 5301 5310 5320 5332 5347 5367 5386 5406 5428 5447 5462 5474 5485 5504 5506 5513 5528 5540 5554 5555 5565 5567 5574 5583 5590 5594 5598 5601 5604 5607 5610 5610 5611 5612
5275 5277 5280 5285 5291 5298 5305 5314 5327 5344 5363 5387 5406 5426 5441 5458 5461 5478 5486 5498 5511 5523 5533 5543 5550 5552 5559 5568 5575 5580 5584 5588 5591 5593 5595 5596 5597 5597
5269 5270 5273 5277 5281 5287 5294 5300 5309 5323 5346 5364 5384 5403 5419 5432 5445 5460 5472 5485 5496 5508 5518 5528 5535 5541 5546 5553 5561 5566 5570 5574 5577 5579 5581 5583 5583 5584
5262 5264 5266 5270 5274 5278 5284 5289 5295 5306 5321 5339 5360 5380 5396 5410 5423 5439 5456 5468 5481 5494 5503 5511 5518 5526 5533 5539 5548 5552 5556 5560 5564 5566 5567 5569 5569 5570
5257 5259 5261 5263 5266 5270 5274 5277 5280 5286 5297 5316 5338 5358 5377 5393 5409 5427 5441 5456 5466 5476 5485 5493 5503 5512 5520 5526 5532 5538 5542 5545 5549 5551 5553 5554 5555 5554
5254 5255 5256 5258 5260 5262 5265 5266 5268 5271 5280 5293 5314 5335 5358 5379 5400 5415 5428 5443 5453 5463 5472 5479 5490 5496 5504 5510 5514 5522 5528 5531 5534 5537 5539 5538 5540 5541
5252 5252 5253 5254 5255 5256 5258 5259 5258 5260 5264 5276 5292 5315 5341 5367 5385 5400 5410 5426 5437 5447 5459 5465 5474 5482 5489 5497 5504 5509 5514 5517 5519 5521 5523 5525 5525 5525
5251 5251 5252 5252 5251 5252 5252 5251 5251 5252 5254 5263 5277 5297 5324 5350 5373 5385 5398 5410 5422 5433 5443 5450 5459 5467 5475 5483 5489 5494 5498 5500 5501 5507 5509 5510 5510 5511